Dashboard

GC7DCWN - ALAS #20#

by S&T147

published: Wed, 11 Oct 2017 7:01:11 am

Certitude Solution



Puzzle stats
155 Woo-Hoo!
19 D'Oh!
Latest activity:
Mon, 23 Oct 2017
Note that some of those attempts may have been anonymous.



You can subscribe to an RSS feed for:
 this puzzle
 S&T147's puzzles
 puzzles in N50 E012 quadrangle
 puzzles in Sachsen
 all puzzles

Your geocaching name is unknown, please sign in to identify yourself. How does it work?

Puzzle solvers, you can certify your solution here:
Show solution 
Show attempts 

(keyword required)
  Stay anonymous

Certified solvers

RankUserTime (Berlin, Europe)
1.talblickrangerWed, 11 Oct 2017 7:08:55 am
2.RemtengrünerWed, 11 Oct 2017 7:31:05 am
3.La.Re.Wed, 11 Oct 2017 7:31:48 am
4.MC tapfer & clumsyWed, 11 Oct 2017 7:58:26 am
5.Rezi73Wed, 11 Oct 2017 7:59:04 am
6.muldenmystWed, 11 Oct 2017 7:59:12 am
7.ungmicWed, 11 Oct 2017 8:18:10 am
8.hoschi_fgWed, 11 Oct 2017 8:26:02 am
9.die eckiesWed, 11 Oct 2017 8:36:59 am
10.Team AntonijaWed, 11 Oct 2017 8:44:48 am
11.PulchenWed, 11 Oct 2017 8:54:39 am
12.LyssiWed, 11 Oct 2017 8:58:08 am
13.geobaemiWed, 11 Oct 2017 9:04:06 am
14.ml8108115Wed, 11 Oct 2017 9:05:01 am
15.slydaggyWed, 11 Oct 2017 9:05:43 am
16.JujahWed, 11 Oct 2017 9:08:11 am
17.Auede⚒Wed, 11 Oct 2017 9:10:08 am
18.Die ErdbärenWed, 11 Oct 2017 9:23:41 am
19.KaTi-95Wed, 11 Oct 2017 9:31:27 am
20.RokatosWed, 11 Oct 2017 10:21:57 am
21.Die MondputzerWed, 11 Oct 2017 10:35:51 am
22.steroli8005Wed, 11 Oct 2017 10:36:29 am
23.Team KlaRoWed, 11 Oct 2017 10:36:43 am
24.Andreas_1978Wed, 11 Oct 2017 10:56:48 am
25.Puste66blumeWed, 11 Oct 2017 10:59:59 am
26.LungwitzerWed, 11 Oct 2017 11:14:09 am
27.Waldwichtel7Wed, 11 Oct 2017 11:17:29 am
28.ZiegelbandeWed, 11 Oct 2017 11:26:33 am
29.karl55Wed, 11 Oct 2017 11:55:13 am
30.JayDa2804Wed, 11 Oct 2017 12:16:45 pm
31.De WasserrattenWed, 11 Oct 2017 12:24:07 pm
32.SkajanaWed, 11 Oct 2017 12:48:52 pm
33.Der_HolzmichelWed, 11 Oct 2017 12:55:02 pm
34.superbone99Wed, 11 Oct 2017 1:16:21 pm
35.Tristi2001Wed, 11 Oct 2017 1:22:16 pm
36.toze1985Wed, 11 Oct 2017 2:16:23 pm
37.DarkDracoWed, 11 Oct 2017 2:18:16 pm
38.fritzfuchs31Wed, 11 Oct 2017 2:42:45 pm
39.fussel140Wed, 11 Oct 2017 2:50:11 pm
40.hectorcuperWed, 11 Oct 2017 2:52:10 pm
41.Mi.EnWed, 11 Oct 2017 3:13:22 pm
42.queenfrWed, 11 Oct 2017 3:13:36 pm
43.ceryWed, 11 Oct 2017 4:09:29 pm
44.Cora292Wed, 11 Oct 2017 4:44:45 pm
45.feesissWed, 11 Oct 2017 5:14:45 pm
46.Bleche112Wed, 11 Oct 2017 5:19:34 pm
47.urmel.1Wed, 11 Oct 2017 5:55:31 pm
48.harcjsWed, 11 Oct 2017 6:07:23 pm
49.BenExel2.0Wed, 11 Oct 2017 6:08:54 pm
50.DannenbärgerWed, 11 Oct 2017 6:42:57 pm
51.HexEnductionWed, 11 Oct 2017 7:52:01 pm
52.KeriandWed, 11 Oct 2017 8:03:50 pm
53.FRFrankWed, 11 Oct 2017 8:09:35 pm
54.SvesucofWed, 11 Oct 2017 8:13:33 pm
55.DB 2000Wed, 11 Oct 2017 8:14:12 pm
56.DeZweerimrammlerWed, 11 Oct 2017 8:25:42 pm
57.2WanderrattenWed, 11 Oct 2017 9:03:19 pm
58.Sjinhe OmWed, 11 Oct 2017 9:07:55 pm
59.FinandantWed, 11 Oct 2017 9:19:15 pm
60.Mauli-TeamWed, 11 Oct 2017 9:28:13 pm
61.WeingeisterWed, 11 Oct 2017 9:59:52 pm
62.Fire Chief 112Wed, 11 Oct 2017 10:42:54 pm
63.hammer68Wed, 11 Oct 2017 10:43:07 pm
64.manzelsWed, 11 Oct 2017 10:45:07 pm
65.@MYThu, 12 Oct 2017 12:24:45 am
66.romosammyThu, 12 Oct 2017 9:24:58 am
67.kire1974Thu, 12 Oct 2017 10:42:29 am
68.ZweilaenderteamThu, 12 Oct 2017 4:15:37 pm
69.Namenloser.HeldThu, 12 Oct 2017 5:49:24 pm
70.ERZgeo'11Thu, 12 Oct 2017 7:16:02 pm
71.Mr. HulkThu, 12 Oct 2017 8:29:50 pm
72.auge 2865Thu, 12 Oct 2017 8:34:58 pm
73.ERZ-SiebiThu, 12 Oct 2017 9:42:19 pm
74.CashkondorThu, 12 Oct 2017 9:44:52 pm
75.erzspatzThu, 12 Oct 2017 10:16:06 pm
76.WaschbärfamilieFri, 13 Oct 2017 9:11:26 am
77.KlabauterklausFri, 13 Oct 2017 9:49:51 am
78.QUlDproQUOFri, 13 Oct 2017 1:01:01 pm
79.gärtnerin85Fri, 13 Oct 2017 1:13:49 pm
80.R&M007Fri, 13 Oct 2017 1:25:24 pm
81.JOHROBSFri, 13 Oct 2017 4:06:06 pm
82.Lotte2011Fri, 13 Oct 2017 4:37:00 pm
83.BenniDDFri, 13 Oct 2017 6:16:32 pm
84.undeinsFri, 13 Oct 2017 6:29:15 pm
85.Rose38Fri, 13 Oct 2017 7:04:39 pm
86.piraten 3Fri, 13 Oct 2017 8:20:53 pm
87.DopplereffektFri, 13 Oct 2017 9:03:18 pm
88.lueFri, 13 Oct 2017 9:14:52 pm
89.Flying Eagles 4Fri, 13 Oct 2017 9:41:55 pm
90.king-tonSat, 14 Oct 2017 1:06:14 am
91.EllisGCSat, 14 Oct 2017 11:23:34 am
92.kami1405Sat, 14 Oct 2017 1:56:09 pm
93.fenoglio88Sat, 14 Oct 2017 4:35:17 pm
94.bhlichtSat, 14 Oct 2017 10:28:30 pm
95.BeschuSat, 14 Oct 2017 11:06:37 pm
96.Hasseröder-CrewSun, 15 Oct 2017 2:54:43 am
97.erz1971Sun, 15 Oct 2017 7:26:10 am
98.Impossible IdiotsMon, 16 Oct 2017 2:45:56 am
99.KleinfingerMon, 16 Oct 2017 12:17:10 pm
100.erichwesterwelleMon, 16 Oct 2017 4:36:45 pm
101.cartman57Mon, 16 Oct 2017 5:05:24 pm
102.KleinzschachwitzerMon, 16 Oct 2017 5:52:14 pm
103.cpdsMon, 16 Oct 2017 9:46:09 pm
104.cachesucher2523Mon, 16 Oct 2017 10:31:42 pm
105.dhag13Mon, 16 Oct 2017 10:46:05 pm
106.Frau GehTue, 17 Oct 2017 11:52:03 am
107.kirschen57Tue, 17 Oct 2017 3:05:36 pm
108.Kuchen-KurtTue, 17 Oct 2017 9:48:42 pm
109.HuckleberryFinn12Tue, 17 Oct 2017 10:56:52 pm
110.Drache61Wed, 18 Oct 2017 1:26:39 pm
111.El_RolfoWed, 18 Oct 2017 6:17:19 pm
112.HeliasThu, 19 Oct 2017 6:47:59 am
113.Firefighter SkippyThu, 19 Oct 2017 3:17:16 pm
114.Blutwurz76Thu, 19 Oct 2017 5:58:50 pm
115.SchwalbenhorstSat, 21 Oct 2017 8:07:20 pm
116.doktorhaasSat, 21 Oct 2017 10:03:57 pm
117.ForestSheriffSun, 22 Oct 2017 6:07:53 pm
118.Primel_Sun, 22 Oct 2017 10:38:17 pm
119.spoekesabgMon, 23 Oct 2017 7:56:32 pm